Pardubice, Czech Republic

11:06 PM CET on February 10, 2016 (GMT +0100)
Pardubice

Weather History for LKPD - January, 2013

Change the Weather History Date:

Sunday, January 13, 2013

  Actual Average Record
Temperature  
Mean Temperature 24 °F -  
Max Temperature 26 °F - - ()
Min Temperature 23 °F - - ()
Degree Days  
Heating Degree Days 40    
Moisture  
Dew Point 19 °F    
Average Humidity 78    
Maximum Humidity 86    
Minimum Humidity 69    
Precipitation  
Precipitation 0.00 in - - ()
Sea Level Pressure  
Sea Level Pressure 30.05 in    
Wind  
Wind Speed 6 mph ()    
Max Wind Speed 12 mph    
Max Gust Speed -    
Visibility 6.2 miles    
Events Snow    
T = Trace of Precipitation, MM = Missing Value Source: Averaged Metar Reports

Daily Weather History Graph

Daily Weather History Graph

Search for Another Location

Airport or City:

Trip Planner

Search our weather history database for the weather conditions in past years. The results will help you decide how hot, cold, wet, or windy it might be!

Date:

Astronomy

Jan. 13, 2013 Rise Set
Actual Time 7:51 AM CET 4:20 PM CET
Civil Twilight 7:14 AM CET 4:58 PM CET
Nautical Twilight 6:33 AM CET 5:38 PM CET
Astronomical Twilight 5:54 AM CET 6:17 PM CET
Moon 8:23 AM CET (1/13) 6:57 PM CET (1/13)
Length of Visible Light 9h 44m
Length of Day
8h 29m
Waxing Crescent, 4% of the Moon is Illuminated
Jan 13
Waxing Crescent
Jan 19
First Quarter
Jan 27
Full
Feb 3
Last Quarter
Feb 10
New

Hourly Weather History & Observations

Time (CET) Temp. Windchill Dew Point Humidity Pressure Visibility Wind Dir Wind Speed Gust Speed Precip Events Conditions
12:00 AM 24.8 °F 16.1 °F 19.4 °F 80% 30.04 in 6.2 mi West 8.1 mph - N/A Snow Light Snow
1:00 AM 26.6 °F 16.8 °F 19.4 °F 74% 30.04 in 6.2 mi West 10.4 mph - N/A Snow Light Snow
2:00 AM 24.8 °F 15.3 °F 19.4 °F 80% 30.04 in 6.2 mi West 9.2 mph - N/A Snow Light Snow
3:00 AM 24.8 °F 16.1 °F 21.2 °F 86% 30.04 in 6.2 mi West 8.1 mph - N/A Snow Light Snow
4:00 AM 24.8 °F 17.9 °F 21.2 °F 86% 30.04 in - West 5.8 mph - N/A   Clear
5:00 AM 24.8 °F 19.1 °F 21.2 °F 86% 30.01 in 6.2 mi WNW 4.6 mph - N/A Snow Light Snow
6:00 AM 24.8 °F 20.5 °F 21.2 °F 86% 30.04 in 6.2 mi WNW 3.5 mph - N/A Snow Light Snow
7:00 AM 24.8 °F - 21.2 °F 86% 30.04 in 6.2 mi Variable 2.3 mph - N/A Snow Light Snow
8:03 AM 24.8 °F 17.9 °F 17.6 °F 74% 30.06 in 6.2 mi NNE 5.8 mph - N/A   Overcast
9:00 AM 23.0 °F 18.4 °F 17.6 °F 80% 30.06 in 6.2 mi NNE 3.5 mph - N/A   Mostly Cloudy
10:00 AM 23.0 °F - 15.8 °F 74% 30.06 in 6.2 mi Variable 2.3 mph - N/A   Mostly Cloudy
11:00 AM 24.8 °F 20.5 °F 17.6 °F 74% 30.06 in 6.2 mi ENE 3.5 mph - N/A Snow Light Snow
12:00 PM 24.8 °F - 19.4 °F 80% 30.06 in 6.2 mi Variable 1.2 mph - N/A Snow Light Snow
1:00 PM 26.6 °F - 19.4 °F 74% 30.04 in 6.2 mi Variable 2.3 mph - N/A   Mostly Cloudy
2:00 PM 26.6 °F - 19.4 °F 74% 30.04 in 6.2 mi Variable 2.3 mph - N/A   Mostly Cloudy
3:00 PM 26.6 °F 21.2 °F 19.4 °F 74% 30.06 in 6.2 mi East 4.6 mph - N/A   Overcast
4:00 PM 26.6 °F 20.0 °F 19.4 °F 74% 30.06 in 6.2 mi East 5.8 mph - N/A   Overcast
5:00 PM 26.6 °F 20.0 °F 19.4 °F 74% 30.06 in 6.2 mi East 5.8 mph - N/A   Overcast
6:00 PM 26.6 °F 16.2 °F 17.6 °F 69% 30.06 in 6.2 mi East 11.5 mph - N/A   Overcast
7:00 PM 26.6 °F 18.2 °F 17.6 °F 69% 30.06 in 6.2 mi East 8.1 mph - N/A   Overcast
8:00 PM 26.6 °F 18.2 °F 19.4 °F 74% 30.06 in 6.2 mi ESE 8.1 mph - N/A   Overcast
9:00 PM 26.6 °F 16.8 °F 19.4 °F 74% 30.06 in 6.2 mi East 10.4 mph - N/A   Overcast
10:00 PM 24.8 °F 15.3 °F 19.4 °F 80% 30.06 in 6.2 mi East 9.2 mph - N/A   Overcast
11:00 PM 24.8 °F 16.1 °F 19.4 °F 80% 30.06 in 6.2 mi East 8.1 mph - N/A   Overcast